FDB225 OBBI-OMDW

Flight info

Callsign FDB225
Flight time 1h 1m
Altitude 25000
Route BHR075/12L DCT BHR N697 SODAK P559 KIVUS G666 ELOVU ELOVU3Z
Aircraft B737/M-NIL/C

Departure

Time 2026-04-27 16:09
Airport Bahrain International Airport (OBBI)

Arrival

Time 2026-04-27 17:10
Airport Al Maktoum International Airport (OMDW)
Time Latitude Longitude Altitude Speed Heading
2026-04-27 15:45 26.26804 50.63072 25 ft 0 kts 213°
2026-04-27 15:57 26.26812 50.63078 25 ft 2 kts 212°
2026-04-27 15:58 26.26824 50.63087 25 ft 2 kts 213°
2026-04-27 15:58 26.26837 50.63096 25 ft 2 kts 213°
2026-04-27 15:58 26.26848 50.63103 25 ft 2 kts 213°
2026-04-27 15:58 26.26859 50.63112 25 ft 2 kts 212°
2026-04-27 15:59 26.26869 50.63125 25 ft 2 kts 255°
2026-04-27 15:59 26.26869 50.63142 25 ft 2 kts 290°
2026-04-27 15:59 26.26866 50.63149 25 ft 1 kts 309°
2026-04-27 15:59 26.26863 50.63153 25 ft 0 kts 304°
2026-04-27 16:02 26.26870 50.63144 25 ft 2 kts 320°
2026-04-27 16:02 26.26896 50.63144 25 ft 5 kts 19°
2026-04-27 16:02 26.26946 50.63163 25 ft 9 kts
2026-04-27 16:03 26.27004 50.63121 25 ft 9 kts 317°
2026-04-27 16:03 26.27050 50.63055 27 ft 11 kts 300°
2026-04-27 16:03 26.27101 50.62974 28 ft 13 kts 305°
2026-04-27 16:03 26.27160 50.62881 30 ft 15 kts 306°
2026-04-27 16:04 26.27222 50.62779 32 ft 17 kts 304°
2026-04-27 16:04 26.27292 50.62657 34 ft 19 kts 303°
2026-04-27 16:04 26.27376 50.62515 31 ft 24 kts 303°
2026-04-27 16:04 26.27410 50.62456 29 ft 0 kts 302°
2026-04-27 16:05 26.27416 50.62445 28 ft 6 kts 303°
2026-04-27 16:05 26.27467 50.62356 25 ft 20 kts 303°
2026-04-27 16:05 26.27569 50.62181 20 ft 33 kts 303°
2026-04-27 16:05 26.27704 50.61956 15 ft 34 kts 305°
2026-04-27 16:06 26.27790 50.61810 15 ft 0 kts 304°
2026-04-27 16:06 26.27793 50.61805 15 ft 1 kts 304°
2026-04-27 16:06 26.27813 50.61773 15 ft 8 kts 304°
2026-04-27 16:06 26.27857 50.61702 15 ft 11 kts 311°
2026-04-27 16:07 26.27906 50.61662 15 ft 6 kts 342°
2026-04-27 16:07 26.27956 50.61661 15 ft 8 kts 15°
2026-04-27 16:07 26.28010 50.61720 15 ft 13 kts 82°
2026-04-27 16:07 26.27985 50.61795 15 ft 0 kts 122°
2026-04-27 16:08 26.27979 50.61805 15 ft 11 kts 123°
2026-04-27 16:08 26.27788 50.62135 17 ft 88 kts 123°
2026-04-27 16:08 26.27323 50.62942 42 ft 155 kts 123°
2026-04-27 16:08 26.26700 50.64074 313 ft 189 kts 121°
2026-04-27 16:09 26.26023 50.65337 1074 ft 199 kts 122°
2026-04-27 16:09 26.25753 50.68513 2419 ft 231 kts 69°
2026-04-27 16:09 26.26614 50.70032 3102 ft 246 kts 46°
2026-04-27 16:10 26.29805 50.71706 4185 ft 277 kts 14°
2026-04-27 16:10 26.33476 50.72749 4489 ft 270 kts 14°
2026-04-27 16:11 26.35272 50.73259 4936 ft 275 kts 15°
2026-04-27 16:11 26.38534 50.75337 5833 ft 280 kts 37°
2026-04-27 16:12 26.41630 50.77993 6730 ft 283 kts 38°
2026-04-27 16:12 26.43181 50.79331 7179 ft 285 kts 38°
2026-04-27 16:12 26.46288 50.82014 8346 ft 289 kts 38°
2026-04-27 16:13 26.47864 50.83375 8971 ft 292 kts 38°
2026-04-27 16:13 26.51052 50.86131 10210 ft 297 kts 38°
2026-04-27 16:13 26.52658 50.87520 10826 ft 300 kts 38°
2026-04-27 16:14 26.55952 50.90371 12082 ft 305 kts 38°
2026-04-27 16:14 26.59330 50.93295 13366 ft 313 kts 38°
2026-04-27 16:15 26.62752 50.96261 14616 ft 320 kts 38°
2026-04-27 16:15 26.66289 50.99329 15642 ft 331 kts 38°
2026-04-27 16:16 26.69950 51.02506 16711 ft 340 kts 38°
2026-04-27 16:16 26.73603 51.05822 17723 ft 345 kts 48°
2026-04-27 16:17 26.75642 51.10519 18720 ft 344 kts 82°
2026-04-27 16:17 26.75296 51.15669 19732 ft 341 kts 107°
2026-04-27 16:18 26.73895 51.20652 20734 ft 342 kts 111°
2026-04-27 16:18 26.72356 51.25548 21709 ft 342 kts 111°
2026-04-27 16:19 26.71549 51.28071 22211 ft 342 kts 111°
2026-04-27 16:19 26.70756 51.30542 22702 ft 341 kts 111°
2026-04-27 16:20 26.68368 51.37962 24180 ft 336 kts 111°
2026-04-27 16:20 26.67580 51.40406 24669 ft 334 kts 111°
2026-04-27 16:20 26.65981 51.45365 24904 ft 352 kts 111°
2026-04-27 16:21 26.65136 51.47997 24924 ft 364 kts 111°
2026-04-27 16:21 26.62470 51.56291 24916 ft 396 kts 111°
2026-04-27 16:22 26.61516 51.59254 24916 ft 406 kts 111°
2026-04-27 16:22 26.59906 51.64249 24907 ft 420 kts 111°
2026-04-27 16:22 26.58574 51.68373 24907 ft 431 kts 111°
2026-04-27 16:23 26.57557 51.71526 24889 ft 433 kts 111°
2026-04-27 16:23 26.55520 51.77825 24884 ft 431 kts 111°
2026-04-27 16:23 26.54510 51.80945 24886 ft 431 kts 111°
2026-04-27 16:24 26.53496 51.84075 24886 ft 431 kts 111°
2026-04-27 16:24 26.51438 51.90349 24886 ft 431 kts 111°
2026-04-27 16:25 26.49350 51.96635 24885 ft 431 kts 111°
2026-04-27 16:25 26.47277 52.02866 24885 ft 431 kts 111°
2026-04-27 16:26 26.45187 52.09140 24884 ft 431 kts 111°
2026-04-27 16:26 26.43091 52.15415 24884 ft 431 kts 111°
2026-04-27 16:27 26.41009 52.21639 24884 ft 431 kts 111°
2026-04-27 16:27 26.37883 52.30965 24883 ft 431 kts 111°
2026-04-27 16:28 26.35781 52.37221 24883 ft 431 kts 111°
2026-04-27 16:28 26.33483 52.43350 24882 ft 431 kts 114°
2026-04-27 16:29 26.29949 52.52570 24883 ft 431 kts 114°
2026-04-27 16:30 26.27608 52.58663 24882 ft 431 kts 114°
2026-04-27 16:30 26.25247 52.64801 24882 ft 431 kts 114°
2026-04-27 16:31 26.21753 52.73917 24885 ft 431 kts 114°
2026-04-27 16:31 26.19399 52.80065 24884 ft 431 kts 114°
2026-04-27 16:32 26.17059 52.86163 24884 ft 431 kts 114°
2026-04-27 16:32 26.15880 52.89235 24884 ft 431 kts 114°
2026-04-27 16:33 26.13550 52.95297 24883 ft 431 kts 114°
2026-04-27 16:33 26.12360 52.98389 24883 ft 431 kts 114°
2026-04-27 16:33 26.11184 53.01442 24883 ft 431 kts 114°
2026-04-27 16:33 26.10034 53.04478 24882 ft 431 kts 113°
2026-04-27 16:34 26.08890 53.07583 24884 ft 431 kts 113°
2026-04-27 16:34 26.07762 53.10652 24883 ft 431 kts 113°
2026-04-27 16:34 26.06636 53.13716 24883 ft 431 kts 113°
2026-04-27 16:34 26.05502 53.16799 24883 ft 431 kts 113°
2026-04-27 16:35 26.04375 53.19859 24882 ft 431 kts 113°
2026-04-27 16:35 26.03230 53.22968 24882 ft 431 kts 113°
2026-04-27 16:35 26.00961 53.29121 24882 ft 431 kts 113°
2026-04-27 16:36 25.99835 53.32171 24882 ft 431 kts 113°
2026-04-27 16:36 25.98694 53.35257 24882 ft 431 kts 113°
2026-04-27 16:36 25.97557 53.38332 24881 ft 431 kts 113°
2026-04-27 16:36 25.96420 53.41405 24881 ft 431 kts 113°
2026-04-27 16:37 25.95294 53.44446 24881 ft 431 kts 113°
2026-04-27 16:37 25.94163 53.47497 24881 ft 431 kts 113°
2026-04-27 16:37 25.93052 53.50584 24878 ft 431 kts 112°
2026-04-27 16:37 25.91980 53.53682 24882 ft 431 kts 112°
2026-04-27 16:38 25.90900 53.56818 24880 ft 431 kts 112°
2026-04-27 16:38 25.89860 53.59834 24881 ft 431 kts 112°
2026-04-27 16:38 25.88784 53.62954 24885 ft 431 kts 112°
2026-04-27 16:38 25.87743 53.65969 24885 ft 431 kts 112°
2026-04-27 16:39 25.87355 53.67091 24887 ft 431 kts 112°
2026-04-27 16:39 25.87011 53.68088 24888 ft 431 kts 112°
2026-04-27 16:40 25.79213 53.90556 24886 ft 431 kts 112°
2026-04-27 16:41 25.78145 53.93622 24886 ft 431 kts 112°
2026-04-27 16:41 25.76877 53.96631 24841 ft 430 kts 122°
2026-04-27 16:41 25.75071 53.99255 24921 ft 428 kts 130°
2026-04-27 16:41 25.73005 54.01590 24830 ft 429 kts 141°
2026-04-27 16:42 25.70480 54.03303 24895 ft 429 kts 154°
2026-04-27 16:42 25.67648 54.04383 24891 ft 430 kts 162°
2026-04-27 16:42 25.64797 54.05430 24883 ft 431 kts 160°
2026-04-27 16:42 25.61989 54.06546 24892 ft 430 kts 159°
2026-04-27 16:43 25.59232 54.07673 24881 ft 430 kts 159°
2026-04-27 16:43 25.56425 54.08828 24886 ft 430 kts 159°
2026-04-27 16:43 25.53665 54.09967 24884 ft 430 kts 159°
2026-04-27 16:43 25.50957 54.11085 24885 ft 430 kts 159°
2026-04-27 16:44 25.48337 54.12165 24884 ft 430 kts 159°
2026-04-27 16:44 25.45575 54.13304 24884 ft 430 kts 159°
2026-04-27 16:44 25.42866 54.14421 24884 ft 430 kts 159°
2026-04-27 16:44 25.40098 54.15561 24869 ft 429 kts 159°
2026-04-27 16:45 25.37396 54.16675 24191 ft 425 kts 159°
2026-04-27 16:45 25.34762 54.17760 23425 ft 397 kts 159°
2026-04-27 16:45 25.32326 54.18762 22863 ft 383 kts 159°
2026-04-27 16:45 25.29821 54.19792 22362 ft 388 kts 159°
2026-04-27 16:46 25.27310 54.20824 21817 ft 389 kts 159°
2026-04-27 16:46 25.24776 54.21865 21267 ft 387 kts 159°
2026-04-27 16:46 25.22273 54.22893 20729 ft 384 kts 160°
2026-04-27 16:46 25.19783 54.23915 20206 ft 380 kts 160°
2026-04-27 16:47 25.17320 54.24925 19703 ft 378 kts 160°
2026-04-27 16:47 25.14872 54.25929 19214 ft 376 kts 160°
2026-04-27 16:47 25.12450 54.26922 18741 ft 375 kts 160°
2026-04-27 16:47 25.10043 54.27908 18280 ft 373 kts 160°
2026-04-27 16:48 25.07628 54.28897 17825 ft 371 kts 160°
2026-04-27 16:48 25.05216 54.29884 17381 ft 370 kts 160°
2026-04-27 16:48 25.02833 54.30859 16951 ft 368 kts 160°
2026-04-27 16:49 24.98105 54.32865 16084 ft 366 kts 154°
2026-04-27 16:49 24.95999 54.34438 15645 ft 365 kts 139°
2026-04-27 16:49 24.94353 54.36553 15254 ft 364 kts 126°
2026-04-27 16:49 24.92967 54.38861 14867 ft 364 kts 123°
2026-04-27 16:50 24.91645 54.41230 14459 ft 362 kts 122°
2026-04-27 16:50 24.90596 54.43734 13987 ft 362 kts 108°
2026-04-27 16:50 24.90172 54.46455 13579 ft 360 kts 92°
2026-04-27 16:50 24.90362 54.49166 13192 ft 352 kts 82°
2026-04-27 16:51 24.90748 54.51788 12785 ft 341 kts 80°
2026-04-27 16:51 24.91172 54.54290 12410 ft 331 kts 79°
2026-04-27 16:51 24.91598 54.56688 11989 ft 310 kts 79°
2026-04-27 16:51 24.92006 54.58951 11585 ft 289 kts 78°
2026-04-27 16:52 24.92385 54.61039 11296 ft 274 kts 78°
2026-04-27 16:52 24.92756 54.63079 11137 ft 273 kts 78°
2026-04-27 16:52 24.93341 54.65045 10834 ft 277 kts 63°
2026-04-27 16:52 24.94380 54.66831 10645 ft 275 kts 54°
2026-04-27 16:53 24.95532 54.68503 10431 ft 276 kts 52°
2026-04-27 16:53 24.96474 54.70295 10315 ft 272 kts 67°
2026-04-27 16:53 24.96988 54.72286 10248 ft 272 kts 85°
2026-04-27 16:53 24.96877 54.74360 10224 ft 272 kts 98°
2026-04-27 16:54 24.96645 54.76437 10182 ft 274 kts 97°
2026-04-27 16:54 24.96420 54.78505 10143 ft 273 kts 97°
2026-04-27 16:54 24.96195 54.80595 10111 ft 273 kts 97°
2026-04-27 16:54 24.95971 54.82661 10089 ft 272 kts 97°
2026-04-27 16:55 24.95749 54.84718 10075 ft 272 kts 97°
2026-04-27 16:55 24.95518 54.86808 10066 ft 272 kts 100°
2026-04-27 16:55 24.94888 54.88759 10055 ft 271 kts 118°
2026-04-27 16:55 24.93966 54.90538 10073 ft 272 kts 121°
2026-04-27 16:56 24.92991 54.92332 10064 ft 272 kts 121°
2026-04-27 16:56 24.92022 54.94099 10057 ft 272 kts 121°
2026-04-27 16:56 24.91055 54.95860 10052 ft 272 kts 121°
2026-04-27 16:56 24.90080 54.97636 10047 ft 272 kts 121°
2026-04-27 16:57 24.89137 54.99353 10043 ft 272 kts 121°
2026-04-27 16:57 24.88163 55.01126 10037 ft 272 kts 121°
2026-04-27 16:57 24.87243 55.02798 9737 ft 269 kts 121°
2026-04-27 16:57 24.86290 55.04531 9424 ft 254 kts 121°
2026-04-27 16:58 24.85401 55.06147 9131 ft 246 kts 122°
2026-04-27 16:58 24.84521 55.07744 8886 ft 242 kts 122°
2026-04-27 16:58 24.83647 55.09331 8654 ft 241 kts 122°
2026-04-27 16:58 24.82780 55.10904 8434 ft 242 kts 122°
2026-04-27 16:59 24.81909 55.12485 8186 ft 243 kts 122°
2026-04-27 16:59 24.81033 55.14066 8094 ft 237 kts 122°
2026-04-27 16:59 24.80186 55.15593 8090 ft 239 kts 122°
2026-04-27 16:59 24.79309 55.17170 8086 ft 241 kts 122°
2026-04-27 17:00 24.77846 55.19802 8070 ft 242 kts 122°
2026-04-27 17:00 24.76685 55.21890 7971 ft 244 kts 122°
2026-04-27 17:00 24.75793 55.23497 7766 ft 243 kts 122°
2026-04-27 17:01 24.74920 55.25070 7569 ft 241 kts 122°
2026-04-27 17:01 24.74053 55.26631 7376 ft 239 kts 122°
2026-04-27 17:01 24.73196 55.28175 7185 ft 238 kts 122°
2026-04-27 17:01 24.72358 55.29681 6981 ft 237 kts 122°
2026-04-27 17:02 24.71529 55.31175 6665 ft 227 kts 122°
2026-04-27 17:02 24.70727 55.32617 6378 ft 216 kts 122°
2026-04-27 17:02 24.69968 55.33982 6170 ft 212 kts 122°
2026-04-27 17:02 24.69212 55.35340 5936 ft 209 kts 122°
2026-04-27 17:03 24.68528 55.36750 5565 ft 213 kts 106°
2026-04-27 17:03 24.68446 55.38381 5265 ft 212 kts 78°
2026-04-27 17:03 24.69035 55.39821 5050 ft 208 kts 52°
2026-04-27 17:03 24.70061 55.40894 4843 ft 204 kts 37°
2026-04-27 17:04 24.71241 55.41790 4625 ft 204 kts 33°
2026-04-27 17:04 24.72509 55.42482 4287 ft 208 kts 11°
2026-04-27 17:04 24.73919 55.42461 4011 ft 206 kts 343°
2026-04-27 17:04 24.75152 55.41708 3765 ft 202 kts 315°
2026-04-27 17:05 24.76030 55.40521 3538 ft 200 kts 304°
2026-04-27 17:05 24.76794 55.39257 3294 ft 199 kts 302°
2026-04-27 17:05 24.77515 55.37980 3093 ft 197 kts 301°
2026-04-27 17:05 24.77980 55.37140 3097 ft 192 kts 301°
2026-04-27 17:06 24.78926 55.35438 3103 ft 195 kts 301°
2026-04-27 17:06 24.79623 55.34185 3094 ft 190 kts 301°
2026-04-27 17:06 24.80262 55.33036 3029 ft 173 kts 301°
2026-04-27 17:06 24.80862 55.31958 3016 ft 164 kts 301°
2026-04-27 17:07 24.81476 55.30852 2834 ft 172 kts 301°
2026-04-27 17:07 24.82100 55.29730 2623 ft 172 kts 301°
2026-04-27 17:07 24.82722 55.28611 2396 ft 171 kts 301°
2026-04-27 17:07 24.83339 55.27501 2169 ft 170 kts 301°
2026-04-27 17:08 24.83948 55.26406 1945 ft 169 kts 301°
2026-04-27 17:08 24.84559 55.25307 1720 ft 169 kts 301°
2026-04-27 17:08 24.85173 55.24200 1492 ft 168 kts 301°
2026-04-27 17:08 24.85783 55.23103 1264 ft 168 kts 301°
2026-04-27 17:09 24.86383 55.22023 1040 ft 167 kts 301°
2026-04-27 17:09 24.86992 55.20925 813 ft 167 kts 301°
2026-04-27 17:09 24.87592 55.19844 591 ft 166 kts 301°
2026-04-27 17:09 24.88190 55.18766 370 ft 165 kts 301°
2026-04-27 17:10 24.88779 55.17704 166 ft 165 kts 301°
2026-04-27 17:10 24.89279 55.16777 133 ft 90 kts 299°
2026-04-27 17:10 24.89405 55.16553 126 ft 0 kts 308°
2026-04-27 17:10 24.89420 55.16533 125 ft 9 kts 309°
2026-04-27 17:11 24.89478 55.16437 123 ft 20 kts 300°
2026-04-27 17:11 24.89567 55.16037 118 ft 5 kts 271°
2026-04-27 17:11 24.89567 55.16036 118 ft 0 kts 271°
2026-04-27 17:12 24.89567 55.16028 118 ft 1 kts 274°
2026-04-27 17:12 24.89568 55.16003 118 ft 5 kts 273°
2026-04-27 17:12 24.89571 55.15941 118 ft 10 kts 274°
2026-04-27 17:13 24.89548 55.15847 117 ft 16 kts 227°
2026-04-27 17:13 24.89526 55.15719 116 ft 19 kts 241°
2026-04-27 17:13 24.89418 55.15694 116 ft 12 kts 126°
2026-04-27 17:13 24.89463 55.15787 116 ft 17 kts 56°
2026-04-27 17:14 24.89423 55.15893 118 ft 17 kts 198°
2026-04-27 17:14 24.89315 55.15800 117 ft 22 kts 214°
2026-04-27 17:14 24.89179 55.15790 119 ft 20 kts 131°
2026-04-27 17:14 24.89109 55.15910 120 ft 16 kts 122°
2026-04-27 17:15 24.89043 55.15988 120 ft 11 kts 160°
2026-04-27 17:15 24.88982 55.15979 120 ft 6 kts 206°
2026-04-27 17:15 24.88977 55.15976 120 ft 0 kts 208°